FloripaSat 1
1 44885U 19093G   25164.82147438  .00008173  00000-0  68689-3 0  9995
2 44885  97.8163 252.4313 0010240 186.6270 173.4819 14.98520779297386
RS-44
1 44909U 19096E   25164.54100116  .00000047  00000-0  15239-3 0  9991
2 44909  82.5214 224.6465 0216284 286.4142  71.3284 12.79741110255199
UPMSat 2
1 46276U 20061E   25164.76812982  .00108260  00000-0  91923-3 0  9999
2 46276  97.2434 239.2918 0001999 162.9337 197.1992 15.69301516266121
SALSAT
1 46495U 20068K   25164.49295624  .00009784  00000-0  42083-3 0  9991
2 46495  97.8603 142.7020 0012449 141.8921 218.3197 15.22794597259126
CubeSX-Sirius-HSE
1 47951U 21022V   25157.62701764  .07883385  25648-5  89537-3 0  9993
2 47951  97.4004  72.1904 0010275 223.9924 136.0557 16.36879307233400
CubeSX-HSE
1 47952U 21022W   25157.69972699  .06655353  25454-5  93288-3 0  9992
2 47952  97.3980  72.5414 0010307 219.3637 140.6911 16.34906352233436
GRBAlpha
1 47959U 21022AD  25160.45426454  .07979523  25524-5  90936-3 0  9994
2 47959  97.3889  75.6219 0010935 224.3674 135.6748 16.36820468232696
TUBIN
1 48900U 21059X   25164.82727937  .00066096  00000-0  78602-3 0  9994
2 48900  97.6750 334.3991 0003626 199.8591 160.2524 15.60925705220709
LEDSAT
1 49069U 21073D   25164.72970990  .00120469  00000-0  13971-2 0  9997
2 49069  97.3890 246.4415 0008969  70.5097 289.7128 15.61350289212082
CUTE
1 49263U 21088D   25162.16955597  .00014302  00000-0  28543-3 0  9991
2 49263  97.4534 238.4709 0007464 226.8323 133.2304 15.46929039204671
TeikyoSat 4
1 49396U 21102B   25164.86520418  .00002965  00000-0  19809-3 0  9991
2 49396  97.4085 203.1392 0013971 116.2140 244.0527 15.07659305197194
Z-Sat
1 49399U 21102E   25164.84742222  .00006299  00000-0  34439-3 0  9991
2 49399  97.3790 206.2438 0019887  90.0767 270.2744 15.14451095197624
KOSEN 1
1 49402U 21102H   25164.55405580  .00010036  00000-0  46230-3 0  9993
2 49402  97.3692 209.4042 0017363  68.5313 291.7772 15.20349412197894
HO-113
1 50466U 21131B   25164.85815251  .00000669  00000-0  22257-3 0  9994
2 50466  98.5104 254.1899 0005355 117.9154 242.2577 14.40820715182062
Foresail-1
1 52766U 22057AL  25164.85369605  .00812200  32970-3  13073-2 0  9995
2 52766  97.6047 317.5514 0009787 250.1204 109.9020 16.03510775170589
SNUGLITE 2
1 52899U 22065F   25164.86664468  .00001222  00000-0  24634-3 0  9993
2 52899  98.1694 306.7982 0008955  99.5268 260.6946 14.63224968157116
UmKA 1 (RS40S)
1 57172U 23091G   25164.83286562  .00009076  00000-0  48286-3 0  9998
2 57172  97.5571 220.1926 0013191 324.8235  35.2125 15.15408600108122
CubeBel-2 (EU11S)
1 57175U 23091K   25164.85153017  .00017110  00000-0  80880-3 0  9995
2 57175  97.5569 221.3830 0011010 333.7770  26.2906 15.19413852108205
VERONIKA
1 58261U 23174F   25164.78933610  .00258915  00000-0  19548-2 0  9993
2 58261  97.4117 251.2186 0000686  21.8642 338.2650 15.71686687 89347
ENSO
1 58470U 23185J   25164.88163817  .00100147  00000-0  14064-2 0  9993
2 58470  97.3731 240.1389 0007087  77.3823 282.8224 15.56347550 85704
EIRSAT-1
1 58472U 23185L   25164.85702598  .00193328  00000-0  16827-2 0  9999
2 58472  97.3678 242.0905 0004081  92.3929 267.7799 15.68426153 85839
SONATE-2
1 59112U 24043Q   25164.33879932  .00030712  00000-0  87684-3 0  9992
2 59112  97.5151 295.5916 0012293 101.8649 258.3973 15.35897720 70912
MO-122
1 60209U 24125G   25164.54787700  .00029296  00000-0  82374-3 0  9992
2 60209  97.2781  16.1217 0020270 121.4432 238.8798 15.36248467 52568
GRBBeta
1 60237U 24128C   25164.79515617  .00006626  00000-0  49500-3 0  9995
2 60237  61.9927  64.8617 0052286  58.5201 302.0984 15.02674027 50836
Curium One
1 60242U 24128H   25164.82473737  .00012002  00000-0  82562-3 0  9991
2 60242  61.9823  62.9895 0052257  54.6613 305.9347 15.05179165 50871
ROBUSTA-3A
1 60243U 24128J   25164.82872446  .00011913  00000-0  83114-3 0  9996
2 60243  61.9894  63.8179 0051042  52.2925 308.2778 15.04710865 50866
CatSat
1 60246U 24125J   25164.02629045  .00009653  00000-0  32082-3 0  9999
2 60246  97.2578  14.7815 0044147  82.6057 278.0197 15.30429806 50515
HYPERVIEW-1G (RS66S)
1 61772U 24199AP  25164.84661096  .00035441  00000-0  10177-2 0  9991
2 61772  97.3523  33.6960 0014081 169.9369 190.2159 15.35662027 77613
AO-123
1 61781U 24199AY  25164.90106669  .00010067  00000-0  36504-3 0  9998
2 61781  97.3537  32.5920 0015912 176.1084 184.0282 15.28423477 77546
ZIMSAT 2
1 61783U 24199BA  25164.88438170  .00065483  00000-0  15749-2 0  9991
2 61783  97.3499  34.3793 0014143 166.1480 194.0158 15.40972891 80817
HADES-R (SO-124)
1 62690U 25009CK  25164.47050985  .00078408  00000-0  27240-2 0  9999
2 62690  97.4091 245.2607 0003929  99.6252 260.5433 15.29434496 22742
HYDRA-T
1 62692U 25009CM  25163.73573618  .00033668  00000-0  11725-2 0  9992
2 62692  97.4095 244.5628 0003712  99.7637 260.4022 15.29591919 22636
JINJUSat 1B
1 63210U 25052A   25164.47778672  .00017114  00000-0  77966-3 0  9994
2 63210  97.4414  58.5518 0002961 334.0919  26.0168 15.20734081 13842
NUSHSAT 1
1 63211U 25052B   25164.66950061  .00021689  00000-0  97973-3 0  9992
2 63211  97.4402  58.7430 0003124 340.1121  19.9992 15.20976548 13875
TEVEL2-4
1 63213U 25052D   25164.68390127  .00020172  00000-0  91958-3 0  9990
2 63213  97.4320  58.6279 0003009   9.3518 350.7772 15.20677306 13874
TEVEL2-5
1 63214U 25052E   25164.68453786  .00020223  00000-0  92239-3 0  9992
2 63214  97.4320  58.6274 0003021   9.3402 350.7889 15.20658475 13871
TEVEL2-6
1 63215U 25052F   25164.68678176  .00020145  00000-0  91990-3 0  9991
2 63215  97.4324  58.6255 0003100   9.3542 350.7750 15.20617963 13872
TEVEL2-1
1 63217U 25052H   25164.43517823  .00021750  00000-0  99905-3 0  9994
2 63217  97.4298  58.3219 0003780  19.9704 340.1679 15.20398244 13839
TEVEL2-2
1 63218U 25052J   25164.63292643  .00020193  00000-0  92795-3 0  9997
2 63218  97.4298  58.5169 0003825  20.3574 339.7813 15.20398501 13860
TEVEL2-3
1 63219U 25052K   25164.69887448  .00019923  00000-0  91567-3 0  9992
2 63219  97.4297  58.5813 0003810  20.1586 339.9799 15.20395410 13873
TEVEL2-8
1 63237U 25052AD  25164.70172786  .00019873  00000-0  94508-3 0  9998
2 63237  97.4363  58.5003 0008467  15.3838 344.7652 15.19190761 13868
TEVEL2-9
1 63238U 25052AE  25164.63835972  .00017810  00000-0  84908-3 0  9996
2 63238  97.4368  58.4338 0008510  14.5713 345.5765 15.19127821 13856
TEVEL2-7
1 63239U 25052AF  25164.64040532  .00019678  00000-0  93847-3 0  9994
2 63239  97.4366  58.4299 0008534  15.4244 344.7249 15.19093689 13858
HYDRA-W
1 63490U 25052BL  25163.96151269  .00023565  00000-0  98995-3 0  9996
2 63490  97.4315  58.0543 0011890  12.3014 347.8511 15.23374966 13771
HADES-ICM (SO-125)
1 63492U 25052BN  25164.70014398  .00045893  00000-0  19397-2 0  9998
2 63492  97.4310  58.7545 0012219  13.0084 347.1466 15.23014820 13882
